"Sample Date","Sample Time","Sample Value","Units","Flow Rate","Sample Interval","Number Channels","Micron Size 0","Counts/Channel 0","Micron Size 1","Counts/Channel 1","Micron Size 2","Counts/Channel 2","Micron Size 3","Counts/Channel 3","Micron Size 4","Counts/Channel 4","Micron Size 5","Counts/Channel 5","Micron Size 6","Counts/Channel 6","Micron Size 7","Counts/Channel 7","Micron Size 8","Counts/Channel 8","Micron Size 9","Counts/Channel 9","Micron Size 10","Counts/Channel 10","Micron Size 11","Counts/Channel 11","Micron Size 12","Counts/Channel 12","Micron Size 13","Counts/Channel 13","Micron Size 14","Counts/Channel 14","Micron Size 15","Counts/Channel 15","Micron Size 16","Counts/Channel 16","Micron Size 17","Counts/Channel 17","Micron Size 18","Counts/Channel 18","Micron Size 19","Counts/Channel 19","Micron Size 20","Counts/Channel 20","Micron Size 21","Counts/Channel 21","Micron Size 22","Counts/Channel 22","Micron Size 23","Counts/Channel 23","Micron Size 24","Counts/Channel 24","Micron Size 25","Counts/Channel 25","Micron Size 26","Counts/Channel 26","Micron Size 27","Counts/Channel 27","Micron Size 28","Counts/Channel 28","Micron Size 29","Counts/Channel 29","Micron Size 30","Counts/Channel 30","Micron Size 31","Counts/Channel 31"
"04/05/08","04:00:00",4984.000,"cc",28415.014,6.00,6,0.100,4652.000,0.200,265.000,0.300,50.000,0.500,16.000,1.000,1.000,5.000,0
"04/05/08","04:00:06",5194.000,"cc",28290.621,6.00,6,0.100,4834.000,0.200,299.000,0.300,45.000,0.500,15.000,1.000,1.000,5.000,0
"04/05/08","04:00:12",5152.000,"cc",28343.168,6.00,6,0.100,4824.000,0.200,272.000,0.300,42.000,0.500,12.000,1.000,2.000,5.000,0
"04/05/08","04:00:18",5265.000,"cc",28352.582,6.00,6,0.100,4932.000,0.200,280.000,0.300,39.000,0.500,12.000,1.000,2.000,5.000,0
"04/05/08","04:00:24",5033.000,"cc",28269.422,6.00,6,0.100,4657.000,0.200,299.000,0.300,48.000,0.500,24.000,1.000,5.000,5.000,0
"04/05/08","04:00:30",5272.000,"cc",28315.289,6.00,6,0.100,4925.000,0.200,287.000,0.300,45.000,0.500,14.000,1.000,1.000,5.000,0
"04/05/08","04:00:36",5050.000,"cc",28295.723,6.00,6,0.100,4727.000,0.200,261.000,0.300,44.000,0.500,16.000,1.000,2.000,5.000,0
"04/05/08","04:00:42",4876.000,"cc",28357.455,6.00,6,0.100,4570.000,0.200,253.000,0.300,37.000,0.500,15.000,1.000,1.000,5.000,0
"04/05/08","04:00:48",4982.000,"cc",28290.436,6.00,6,0.100,4654.000,0.200,270.000,0.300,37.000,0.500,21.000,1.000,0,5.000,0
"04/05/08","04:00:54",5124.000,"cc",28313.316,6.00,6,0.100,4804.000,0.200,265.000,0.300,41.000,0.500,11.000,1.000,3.000,5.000,0
"04/05/08","04:01:00",5137.000,"cc",28308.318,6.00,6,0.100,4818.000,0.200,264.000,0.300,35.000,0.500,20.000,1.000,0,5.000,0
"04/05/08","04:01:06",5241.000,"cc",28335.127,6.00,6,0.100,4895.000,0.200,294.000,0.300,27.000,0.500,23.000,1.000,2.000,5.000,0
"04/05/08","04:01:12",4951.000,"cc",28278.268,6.00,6,0.100,4624.000,0.200,269.000,0.300,34.000,0.500,22.000,1.000,2.000,5.000,0
"04/05/08","04:01:18",5305.000,"cc",28329.313,6.00,6,0.100,4937.000,0.200,300.000,0.300,51.000,0.500,15.000,1.000,2.000,5.000,0
"04/05/08","04:01:24",5261.000,"cc",28281.842,6.00,6,0.100,4919.000,0.200,279.000,0.300,43.000,0.500,14.000,1.000,6.000,5.000,0
"04/05/08","04:01:30",5269.000,"cc",28325.658,6.00,6,0.100,4932.000,0.200,273.000,0.300,49.000,0.500,14.000,1.000,1.000,5.000,0
"04/05/08","04:01:36",5434.000,"cc",28273.330,6.00,6,0.100,5080.000,0.200,296.000,0.300,43.000,0.500,12.000,1.000,3.000,5.000,0
"04/05/08","04:01:42",5481.000,"cc",28302.436,6.00,6,0.100,5153.000,0.200,278.000,0.300,39.000,0.500,9.000,1.000,2.000,5.000,0
"04/05/08","04:01:48",5539.000,"cc",28375.641,6.00,6,0.100,5182.000,0.200,306.000,0.300,41.000,0.500,9.000,1.000,1.000,5.000,0
"04/05/08","04:01:54",5172.000,"cc",28289.781,6.00,6,0.100,4848.000,0.200,278.000,0.300,38.000,0.500,7.000,1.000,1.000,5.000,0
"04/05/08","04:02:00",4910.000,"cc",28286.600,6.00,6,0.100,4619.000,0.200,254.000,0.300,31.000,0.500,6.000,1.000,0,5.000,0
"04/05/08","04:02:06",5222.000,"cc",28325.094,6.00,6,0.100,4926.000,0.200,256.000,0.300,30.000,0.500,10.000,1.000,0,5.000,0
"04/05/08","04:02:12",5156.000,"cc",28349.664,6.00,6,0.100,4839.000,0.200,277.000,0.300,31.000,0.500,9.000,1.000,0,5.000,0
"04/05/08","04:02:18",4993.000,"cc",28310.004,6.00,6,0.100,4652.000,0.200,288.000,0.300,39.000,0.500,13.000,1.000,1.000,5.000,0
"04/05/08","04:02:24",4815.000,"cc",28359.541,6.00,6,0.100,4515.000,0.200,271.000,0.300,26.000,0.500,3.000,1.000,0,5.000,0
"04/05/08","04:02:30",4774.000,"cc",28314.596,6.00,6,0.100,4469.000,0.200,273.000,0.300,26.000,0.500,6.000,1.000,0,5.000,0
"04/05/08","04:02:36",4867.000,"cc",28284.285,6.00,6,0.100,4565.000,0.200,269.000,0.300,29.000,0.500,3.000,1.000,1.000,5.000,0
"04/05/08","04:02:42",4894.000,"cc",28297.715,6.00,6,0.100,4611.000,0.200,257.000,0.300,25.000,0.500,1.000,1.000,0,5.000,0
"04/05/08","04:02:48",5010.000,"cc",28300.844,6.00,6,0.100,4708.000,0.200,273.000,0.300,25.000,0.500,4.000,1.000,0,5.000,0
"04/05/08","04:02:54",5119.000,"cc",28300.318,6.00,6,0.100,4804.000,0.200,289.000,0.300,24.000,0.500,2.000,1.000,0,5.000,0
"04/05/08","04:03:00",4987.000,"cc",28292.898,6.00,6,0.100,4692.000,0.200,266.000,0.300,27.000,0.500,1.000,1.000,1.000,5.000,0
"04/05/08","04:03:06",4676.000,"cc",28307.096,6.00,6,0.100,4411.000,0.200,241.000,0.300,19.000,0.500,5.000,1.000,0,5.000,0
"04/05/08","04:03:12",4692.000,"cc",28365.941,6.00,6,0.100,4449.000,0.200,223.000,0.300,18.000,0.500,2.000,1.000,0,5.000,0
"04/05/08","04:03:18",4811.000,"cc",28297.279,6.00,6,0.100,4547.000,0.200,245.000,0.300,18.000,0.500,1.000,1.000,0,5.000,0
"04/05/08","04:03:24",4669.000,"cc",28364.623,6.00,6,0.100,4399.000,0.200,249.000,0.300,19.000,0.500,2.000,1.000,0,5.000,0
"04/05/08","04:03:30",4811.000,"cc",28348.922,6.00,6,0.100,4582.000,0.200,210.000,0.300,18.000,0.500,1.000,1.000,0,5.000,0
"04/05/08","04:03:36",4965.000,"cc",28316.709,6.00,6,0.100,4688.000,0.200,256.000,0.300,20.000,0.500,1.000,1.000,0,5.000,0
"04/05/08","04:03:42",4660.000,"cc",28308.018,6.00,6,0.100,4432.000,0.200,213.000,0.300,14.000,0.500,1.000,1.000,0,5.000,0
"04/05/08","04:03:48",4739.000,"cc",28291.295,6.00,6,0.100,4457.000,0.200,261.000,0.300,18.000,0.500,3.000,1.000,0,5.000,0
"04/05/08","04:03:54",4740.000,"cc",28304.004,6.00,6,0.100,4466.000,0.200,249.000,0.300,25.000,0.500,0,1.000,0,5.000,0
"04/05/08","04:04:00",4933.000,"cc",28320.137,6.00,6,0.100,4699.000,0.200,214.000,0.300,16.000,0.500,4.000,1.000,0,5.000,0
"04/05/08","04:04:06",4787.000,"cc",28421.188,6.00,6,0.100,4522.000,0.200,245.000,0.300,18.000,0.500,2.000,1.000,0,5.000,0
"04/05/08","04:04:12",4716.000,"cc",28237.842,6.00,6,0.100,4458.000,0.200,237.000,0.300,17.000,0.500,4.000,1.000,0,5.000,0
"04/05/08","04:04:18",4609.000,"cc",28345.863,6.00,6,0.100,4361.000,0.200,226.000,0.300,21.000,0.500,1.000,1.000,0,5.000,0
"04/05/08","04:04:24",4970.000,"cc",28369.930,6.00,6,0.100,4683.000,0.200,250.000,0.300,36.000,0.500,1.000,1.000,0,5.000,0
"04/05/08","04:04:30",4360.000,"cc",28257.660,6.00,6,0.100,4141.000,0.200,202.000,0.300,10.000,0.500,7.000,1.000,0,5.000,0
"04/05/08","04:04:36",4851.000,"cc",28320.984,6.00,6,0.100,4577.000,0.200,241.000,0.300,32.000,0.500,1.000,1.000,0,5.000,0
"04/05/08","04:04:42",4375.000,"cc",28404.125,6.00,6,0.100,4180.000,0.200,191.000,0.300,3.000,0.500,1.000,1.000,0,5.000,0
"04/05/08","04:04:48",4599.000,"cc",28243.902,6.00,6,0.100,4357.000,0.200,222.000,0.300,17.000,0.500,3.000,1.000,0,5.000,0
"04/05/08","04:04:54",4237.000,"cc",28258.047,6.00,6,0.100,4042.000,0.200,185.000,0.300,9.000,0.500,1.000,1.000,0,5.000,0
"04/05/08","04:05:00",4186.000,"cc",28257.352,6.00,6,0.100,3987.000,0.200,175.000,0.300,24.000,0.500,0,1.000,0,5.000,0
"04/05/08","04:05:06",4333.000,"cc",28370.123,6.00,6,0.100,4130.000,0.200,183.000,0.300,20.000,0.500,0,1.000,0,5.000,0
"04/05/08","04:05:12",4659.000,"cc",28265.010,6.00,6,0.100,4431.000,0.200,210.000,0.300,13.000,0.500,5.000,1.000,0,5.000,0
"04/05/08","04:05:18",4340.000,"cc",28359.145,6.00,6,0.100,4124.000,0.200,197.000,0.300,17.000,0.500,2.000,1.000,0,5.000,0
"04/05/08","04:05:24",4567.000,"cc",28275.438,6.00,6,0.100,4386.000,0.200,175.000,0.300,6.000,0.500,0,1.000,0,5.000,0
"04/05/08","04:05:30",4552.000,"cc",28390.678,6.00,6,0.100,4288.000,0.200,248.000,0.300,14.000,0.500,2.000,1.000,0,5.000,0
"04/05/08","04:05:36",4545.000,"cc",28232.018,6.00,6,0.100,4305.000,0.200,218.000,0.300,20.000,0.500,2.000,1.000,0,5.000,0
"04/05/08","04:05:42",4749.000,"cc",28326.693,6.00,6,0.100,4504.000,0.200,223.000,0.300,20.000,0.500,2.000,1.000,0,5.000,0
"04/05/08","04:05:48",4555.000,"cc",28338.592,6.00,6,0.100,4303.000,0.200,237.000,0.300,14.000,0.500,1.000,1.000,0,5.000,0
"04/05/08","04:05:54",4565.000,"cc",28240.213,6.00,6,0.100,4333.000,0.200,218.000,0.300,13.000,0.500,1.000,1.000,0,5.000,0
"04/05/08","04:06:00",4864.000,"cc",28357.315,6.00,6,0.100,4576.000,0.200,261.000,0.300,22.000,0.500,5.000,1.000,0,5.000,0
"04/05/08","04:06:06",4644.000,"cc",28330.639,6.00,6,0.100,4391.000,0.200,234.000,0.300,15.000,0.500,4.000,1.000,0,5.000,0
"04/05/08","04:06:12",4573.000,"cc",28281.637,6.00,6,0.100,4323.000,0.200,227.000,0.300,19.000,0.500,4.000,1.000,0,5.000,0
"04/05/08","04:06:18",4671.000,"cc",28310.504,6.00,6,0.100,4421.000,0.200,227.000,0.300,20.000,0.500,3.000,1.000,0,5.000,0
"04/05/08","04:06:24",4998.000,"cc",28310.434,6.00,6,0.100,4693.000,0.200,276.000,0.300,22.000,0.500,6.000,1.000,1.000,5.000,0
"04/05/08","04:06:30",4815.000,"cc",28355.541,6.00,6,0.100,4561.000,0.200,227.000,0.300,24.000,0.500,3.000,1.000,0,5.000,0
"04/05/08","04:06:36",3648.000,"cc",28373.082,6.00,6,0.100,3477.000,0.200,153.000,0.300,15.000,0.500,3.000,1.000,0,5.000,0
"04/05/08","04:06:42",4756.000,"cc",28272.838,6.00,6,0.100,4504.000,0.200,227.000,0.300,18.000,0.500,7.000,1.000,0,5.000,0
"04/05/08","04:06:48",4810.000,"cc",28311.697,6.00,6,0.100,4542.000,0.200,240.000,0.300,25.000,0.500,3.000,1.000,0,5.000,0
"04/05/08","04:06:54",4928.000,"cc",28335.436,6.00,6,0.100,4649.000,0.200,247.000,0.300,30.000,0.500,2.000,1.000,0,5.000,0
"04/05/08","04:07:00",4754.000,"cc",28243.412,6.00,6,0.100,4502.000,0.200,227.000,0.300,21.000,0.500,4.000,1.000,0,5.000,0
"04/05/08","04:07:06",4189.000,"cc",28396.123,6.00,6,0.100,3989.000,0.200,174.000,0.300,25.000,0.500,1.000,1.000,0,5.000,0
"04/05/08","04:07:12",4643.000,"cc",28312.547,6.00,6,0.100,4433.000,0.200,194.000,0.300,15.000,0.500,1.000,1.000,0,5.000,0
"04/05/08","04:07:18",4804.000,"cc",28278.461,6.00,6,0.100,4551.000,0.200,226.000,0.300,23.000,0.500,4.000,1.000,0,5.000,0
"04/05/08","04:07:24",4736.000,"cc",28326.619,6.00,6,0.100,4507.000,0.200,212.000,0.300,15.000,0.500,2.000,1.000,0,5.000,0
"04/05/08","04:07:30",4749.000,"cc",28295.195,6.00,6,0.100,4483.000,0.200,230.000,0.300,30.000,0.500,6.000,1.000,0,5.000,0
"04/05/08","04:07:36",4829.000,"cc",28324.775,6.00,6,0.100,4541.000,0.200,254.000,0.300,31.000,0.500,3.000,1.000,0,5.000,0
"04/05/08","04:07:42",4810.000,"cc",28272.197,6.00,6,0.100,4567.000,0.200,220.000,0.300,19.000,0.500,4.000,1.000,0,5.000,0
"04/05/08","04:07:48",4772.000,"cc",28396.693,6.00,6,0.100,4516.000,0.200,237.000,0.300,17.000,0.500,2.000,1.000,0,5.000,0
"04/05/08","04:07:54",4367.000,"cc",28281.463,6.00,6,0.100,4136.000,0.200,208.000,0.300,20.000,0.500,3.000,1.000,0,5.000,0
"04/05/08","04:08:00",4640.000,"cc",28309.766,6.00,6,0.100,4417.000,0.200,198.000,0.300,21.000,0.500,3.000,1.000,1.000,5.000,0
"04/05/08","04:08:06",4528.000,"cc",28321.693,6.00,6,0.100,4282.000,0.200,217.000,0.300,22.000,0.500,6.000,1.000,1.000,5.000,0
"04/05/08","04:08:12",4712.000,"cc",28358.359,6.00,6,0.100,4493.000,0.200,204.000,0.300,12.000,0.500,3.000,1.000,0,5.000,0
"04/05/08","04:08:18",4772.000,"cc",28287.721,6.00,6,0.100,4486.000,0.200,251.000,0.300,27.000,0.500,8.000,1.000,0,5.000,0
"04/05/08","04:08:24",4290.000,"cc",28290.719,6.00,6,0.100,4078.000,0.200,188.000,0.300,20.000,0.500,3.000,1.000,1.000,5.000,0
"04/05/08","04:08:30",4705.000,"cc",28316.098,6.00,6,0.100,4447.000,0.200,229.000,0.300,23.000,0.500,6.000,1.000,0,5.000,0
"04/05/08","04:08:36",4710.000,"cc",28341.002,6.00,6,0.100,4454.000,0.200,220.000,0.300,33.000,0.500,3.000,1.000,0,5.000,0
"04/05/08","04:08:42",4801.000,"cc",28350.635,6.00,6,0.100,4565.000,0.200,211.000,0.300,22.000,0.500,2.000,1.000,1.000,5.000,0
"04/05/08","04:08:48",4617.000,"cc",28281.211,6.00,6,0.100,4374.000,0.200,213.000,0.300,27.000,0.500,3.000,1.000,0,5.000,0
"04/05/08","04:08:54",4757.000,"cc",28324.518,6.00,6,0.100,4501.000,0.200,232.000,0.300,19.000,0.500,5.000,1.000,0,5.000,0
"04/05/08","04:09:00",4813.000,"cc",28343.770,6.00,6,0.100,4558.000,0.200,235.000,0.300,15.000,0.500,5.000,1.000,0,5.000,0
"04/05/08","04:09:06",4346.000,"cc",28360.563,6.00,6,0.100,4141.000,0.200,193.000,0.300,12.000,0.500,0,1.000,0,5.000,0
"04/05/08","04:09:12",4524.000,"cc",28241.436,6.00,6,0.100,4320.000,0.200,184.000,0.300,19.000,0.500,1.000,1.000,0,5.000,0
"04/05/08","04:09:18",4445.000,"cc",28338.191,6.00,6,0.100,4224.000,0.200,202.000,0.300,17.000,0.500,2.000,1.000,0,5.000,0
"04/05/08","04:09:24",4282.000,"cc",28311.078,6.00,6,0.100,4081.000,0.200,183.000,0.300,15.000,0.500,3.000,1.000,0,5.000,0
"04/05/08","04:09:30",4415.000,"cc",28269.693,6.00,6,0.100,4221.000,0.200,175.000,0.300,16.000,0.500,3.000,1.000,0,5.000,0
"04/05/08","04:09:36",4229.000,"cc",28304.096,6.00,6,0.100,4040.000,0.200,176.000,0.300,12.000,0.500,1.000,1.000,0,5.000,0
"04/05/08","04:09:42",4506.000,"cc",28340.113,6.00,6,0.100,4312.000,0.200,170.000,0.300,17.000,0.500,6.000,1.000,1.000,5.000,0
"04/05/08","04:09:48",4567.000,"cc",28347.533,6.00,6,0.100,4315.000,0.200,231.000,0.300,15.000,0.500,5.000,1.000,1.000,5.000,0
"04/05/08","04:09:54",4094.000,"cc",28317.762,6.00,6,0.100,3952.000,0.200,133.000,0.300,8.000,0.500,1.000,1.000,0,5.000,0
"04/05/08","04:10:00",4149.000,"cc",28349.199,6.00,6,0.100,3969.000,0.200,164.000,0.300,15.000,0.500,1.000,1.000,0,5.000,0
"04/05/08","04:10:06",4719.000,"cc",28269.422,6.00,6,0.100,4496.000,0.200,202.000,0.300,20.000,0.500,1.000,1.000,0,5.000,0
"04/05/08","04:10:12",4754.000,"cc",28311.856,6.00,6,0.100,4528.000,0.200,211.000,0.300,13.000,0.500,1.000,1.000,1.000,5.000,0
"04/05/08","04:10:18",4365.000,"cc",28339.203,6.00,6,0.100,4207.000,0.200,146.000,0.300,11.000,0.500,1.000,1.000,0,5.000,0
"04/05/08","04:10:24",4520.000,"cc",28291.881,6.00,6,0.100,4307.000,0.200,191.000,0.300,20.000,0.500,2.000,1.000,0,5.000,0
"04/05/08","04:10:30",4694.000,"cc",28274.477,6.00,6,0.100,4479.000,0.200,199.000,0.300,15.000,0.500,1.000,1.000,0,5.000,0
"04/05/08","04:10:36",4570.000,"cc",28317.856,6.00,6,0.100,4369.000,0.200,183.000,0.300,14.000,0.500,4.000,1.000,0,5.000,0
"04/05/08","04:10:42",4333.000,"cc",28335.033,6.00,6,0.100,4120.000,0.200,194.000,0.300,17.000,0.500,2.000,1.000,0,5.000,0
"04/05/08","04:10:48",4523.000,"cc",28343.641,6.00,6,0.100,4315.000,0.200,188.000,0.300,17.000,0.500,3.000,1.000,0,5.000,0
"04/05/08","04:10:54",4379.000,"cc",28267.461,6.00,6,0.100,4194.000,0.200,167.000,0.300,16.000,0.500,2.000,1.000,0,5.000,0
"04/05/08","04:11:00",4335.000,"cc",28391.934,6.00,6,0.100,4170.000,0.200,151.000,0.300,14.000,0.500,0,1.000,0,5.000,0
"04/05/08","04:11:06",4622.000,"cc",28310.484,6.00,6,0.100,4382.000,0.200,218.000,0.300,19.000,0.500,3.000,1.000,0,5.000,0
"04/05/08","04:11:12",4351.000,"cc",28317.449,6.00,6,0.100,4155.000,0.200,179.000,0.300,13.000,0.500,4.000,1.000,0,5.000,0
"04/05/08","04:11:18",4458.000,"cc",28280.098,6.00,6,0.100,4255.000,0.200,185.000,0.300,17.000,0.500,1.000,1.000,0,5.000,0
"04/05/08","04:11:24",4715.000,"cc",28313.027,6.00,6,0.100,4492.000,0.200,203.000,0.300,18.000,0.500,2.000,1.000,0,5.000,0
"04/05/08","04:11:30",4799.000,"cc",28337.410,6.00,6,0.100,4558.000,0.200,218.000,0.300,21.000,0.500,2.000,1.000,0,5.000,0
"04/05/08","04:11:36",4544.000,"cc",28372.574,6.00,6,0.100,4385.000,0.200,150.000,0.300,9.000,0.500,0,1.000,0,5.000,0
"04/05/08","04:11:42",4325.000,"cc",28289.313,6.00,6,0.100,4169.000,0.200,141.000,0.300,13.000,0.500,2.000,1.000,0,5.000,0
"04/05/08","04:11:48",4230.000,"cc",28301.258,6.00,6,0.100,4002.000,0.200,199.000,0.300,21.000,0.500,7.000,1.000,1.000,5.000,0
"04/05/08","04:11:54",4540.000,"cc",28329.731,6.00,6,0.100,4314.000,0.200,205.000,0.300,15.000,0.500,6.000,1.000,0,5.000,0
"04/05/08","04:12:00",4762.000,"cc",28286.381,6.00,6,0.100,4516.000,0.200,212.000,0.300,28.000,0.500,5.000,1.000,1.000,5.000,0
"04/05/08","04:12:06",4593.000,"cc",28309.791,6.00,6,0.100,4354.000,0.200,199.000,0.300,36.000,0.500,4.000,1.000,0,5.000,0
"04/05/08","04:12:12",4437.000,"cc",28298.826,6.00,6,0.100,4268.000,0.200,154.000,0.300,13.000,0.500,2.000,1.000,0,5.000,0
"04/05/08","04:12:18",4583.000,"cc",28329.598,6.00,6,0.100,4393.000,0.200,175.000,0.300,13.000,0.500,2.000,1.000,0,5.000,0
"04/05/08","04:12:24",4699.000,"cc",28331.609,6.00,6,0.100,4500.000,0.200,179.000,0.300,19.000,0.500,1.000,1.000,0,5.000,0
"04/05/08","04:12:30",4706.000,"cc",28295.951,6.00,6,0.100,4528.000,0.200,162.000,0.300,16.000,0.500,0,1.000,0,5.000,0
"04/05/08","04:12:36",4718.000,"cc",28305.838,6.00,6,0.100,4515.000,0.200,188.000,0.300,14.000,0.500,1.000,1.000,0,5.000,0
"04/05/08","04:12:42",4913.000,"cc",28351.065,6.00,6,0.100,4695.000,0.200,196.000,0.300,21.000,0.500,1.000,1.000,0,5.000,0
"04/05/08","04:12:48",4835.000,"cc",28294.731,6.00,6,0.100,4627.000,0.200,193.000,0.300,12.000,0.500,3.000,1.000,0,5.000,0
"04/05/08","04:12:54",5039.000,"cc",28334.070,6.00,6,0.100,4810.000,0.200,206.000,0.300,20.000,0.500,3.000,1.000,0,5.000,0
"04/05/08","04:13:00",4878.000,"cc",28303.951,6.00,6,0.100,4665.000,0.200,197.000,0.300,16.000,0.500,0,1.000,0,5.000,0
"04/05/08","04:13:06",4393.000,"cc",28326.178,6.00,6,0.100,4208.000,0.200,165.000,0.300,18.000,0.500,2.000,1.000,0,5.000,0
"04/05/08","04:13:12",4681.000,"cc",28308.262,6.00,6,0.100,4457.000,0.200,202.000,0.300,19.000,0.500,3.000,1.000,0,5.000,0
"04/05/08","04:13:18",5016.000,"cc",28336.869,6.00,6,0.100,4756.000,0.200,240.000,0.300,17.000,0.500,3.000,1.000,0,5.000,0
"04/05/08","04:13:24",5018.000,"cc",28331.254,6.00,6,0.100,4783.000,0.200,215.000,0.300,13.000,0.500,7.000,1.000,0,5.000,0
"04/05/08","04:13:30",4609.000,"cc",28345.580,6.00,6,0.100,4426.000,0.200,166.000,0.300,14.000,0.500,2.000,1.000,1.000,5.000,0
"04/05/08","04:13:36",5076.000,"cc",28278.789,6.00,6,0.100,4848.000,0.200,206.000,0.300,20.000,0.500,2.000,1.000,0,5.000,0
"04/05/08","04:13:42",4751.000,"cc",28285.270,6.00,6,0.100,4502.000,0.200,222.000,0.300,25.000,0.500,1.000,1.000,0,5.000,1.000
"04/05/08","04:13:48",4543.000,"cc",28297.742,6.00,6,0.100,4319.000,0.200,199.000,0.300,24.000,0.500,1.000,1.000,0,5.000,0
"04/05/08","04:13:54",4860.000,"cc",28399.824,6.00,6,0.100,4630.000,0.200,219.000,0.300,11.000,0.500,0,1.000,0,5.000,0
"04/05/08","04:14:00",4829.000,"cc",28296.898,6.00,6,0.100,4617.000,0.200,199.000,0.300,10.000,0.500,2.000,1.000,1.000,5.000,0
"04/05/08","04:14:06",4719.000,"cc",28291.494,6.00,6,0.100,4506.000,0.200,196.000,0.300,17.000,0.500,0,1.000,0,5.000,0
"04/05/08","04:14:12",4777.000,"cc",28311.568,6.00,6,0.100,4548.000,0.200,212.000,0.300,15.000,0.500,2.000,1.000,0,5.000,0
"04/05/08","04:14:18",5000.000,"cc",28307.184,6.00,6,0.100,4775.000,0.200,210.000,0.300,12.000,0.500,3.000,1.000,0,5.000,0
"04/05/08","04:14:24",4481.000,"cc",28337.123,6.00,6,0.100,4285.000,0.200,175.000,0.300,17.000,0.500,4.000,1.000,0,5.000,0
"04/05/08","04:14:30",4422.000,"cc",28285.688,6.00,6,0.100,4239.000,0.200,168.000,0.300,15.000,0.500,0,1.000,0,5.000,0
"04/05/08","04:14:36",4540.000,"cc",28290.408,6.00,6,0.100,4319.000,0.200,202.000,0.300,16.000,0.500,3.000,1.000,0,5.000,0
"04/05/08","04:14:42",4812.000,"cc",28353.982,6.00,6,0.100,4577.000,0.200,217.000,0.300,17.000,0.500,1.000,1.000,0,5.000,0
"04/05/08","04:14:48",4747.000,"cc",28361.768,6.00,6,0.100,4553.000,0.200,180.000,0.300,13.000,0.500,1.000,1.000,0,5.000,0
"04/05/08","04:14:54",4776.000,"cc",28283.174,6.00,6,0.100,4578.000,0.200,179.000,0.300,17.000,0.500,2.000,1.000,0,5.000,0
"04/05/08","04:15:00",4884.000,"cc",28286.463,6.00,6,0.100,4693.000,0.200,178.000,0.300,13.000,0.500,0,1.000,0,5.000,0
"04/05/08","04:15:06",5032.000,"cc",28355.738,6.00,6,0.100,4782.000,0.200,233.000,0.300,16.000,0.500,1.000,1.000,0,5.000,0
"04/05/08","04:15:12",4834.000,"cc",28314.551,6.00,6,0.100,4613.000,0.200,214.000,0.300,6.000,0.500,1.000,1.000,0,5.000,0
"04/05/08","04:15:18",4803.000,"cc",28317.783,6.00,6,0.100,4590.000,0.200,201.000,0.300,12.000,0.500,0,1.000,0,5.000,0
"04/05/08","04:15:24",4774.000,"cc",28381.014,6.00,6,0.100,4601.000,0.200,158.000,0.300,14.000,0.500,1.000,1.000,0,5.000,0
"04/05/08","04:15:30",5125.000,"cc",28357.340,6.00,6,0.100,4930.000,0.200,185.000,0.300,10.000,0.500,0,1.000,0,5.000,0
"04/05/08","04:15:36",4790.000,"cc",28315.385,6.00,6,0.100,4611.000,0.200,166.000,0.300,12.000,0.500,1.000,1.000,0,5.000,0
"04/05/08","04:15:42",4874.000,"cc",28274.947,6.00,6,0.100,4653.000,0.200,205.000,0.300,16.000,0.500,0,1.000,0,5.000,0
"04/05/08","04:15:48",5250.000,"cc",28314.506,6.00,6,0.100,5037.000,0.200,195.000,0.300,14.000,0.500,4.000,1.000,0,5.000,0
"04/05/08","04:15:54",4277.000,"cc",28319.252,6.00,6,0.100,4115.000,0.200,154.000,0.300,7.000,0.500,1.000,1.000,0,5.000,0
"04/05/08","04:16:00",4305.000,"cc",28323.365,6.00,6,0.100,4158.000,0.200,139.000,0.300,8.000,0.500,0,1.000,0,5.000,0
"04/05/08","04:16:06",4557.000,"cc",28308.893,6.00,6,0.100,4388.000,0.200,152.000,0.300,15.000,0.500,2.000,1.000,0,5.000,0
"04/05/08","04:16:12",4756.000,"cc",28287.398,6.00,6,0.100,4546.000,0.200,198.000,0.300,9.000,0.500,3.000,1.000,0,5.000,0
"04/05/08","04:16:18",4632.000,"cc",28339.229,6.00,6,0.100,4438.000,0.200,184.000,0.300,7.000,0.500,3.000,1.000,0,5.000,0
"04/05/08","04:16:24",4714.000,"cc",28304.940,6.00,6,0.100,4524.000,0.200,180.000,0.300,9.000,0.500,1.000,1.000,0,5.000,0
"04/05/08","04:16:30",4988.000,"cc",28354.012,6.00,6,0.100,4763.000,0.200,212.000,0.300,12.000,0.500,1.000,1.000,0,5.000,0
"04/05/08","04:16:36",4739.000,"cc",28282.734,6.00,6,0.100,4548.000,0.200,177.000,0.300,12.000,0.500,2.000,1.000,0,5.000,0
"04/05/08","04:16:42",4867.000,"cc",28296.049,6.00,6,0.100,4654.000,0.200,191.000,0.300,20.000,0.500,2.000,1.000,0,5.000,0
"04/05/08","04:16:48",5148.000,"cc",28337.949,6.00,6,0.100,4929.000,0.200,208.000,0.300,11.000,0.500,0,1.000,0,5.000,0
"04/05/08","04:16:54",4431.000,"cc",28338.543,6.00,6,0.100,4272.000,0.200,152.000,0.300,6.000,0.500,1.000,1.000,0,5.000,0
"04/05/08","04:17:00",4101.000,"cc",28332.867,6.00,6,0.100,3954.000,0.200,132.000,0.300,15.000,0.500,0,1.000,0,5.000,0
"04/05/08","04:17:06",4548.000,"cc",28315.789,6.00,6,0.100,4401.000,0.200,138.000,0.300,6.000,0.500,3.000,1.000,0,5.000,0
"04/05/08","04:17:12",4820.000,"cc",28324.334,6.00,6,0.100,4604.000,0.200,207.000,0.300,7.000,0.500,2.000,1.000,0,5.000,0
"04/05/08","04:17:18",4798.000,"cc",28290.293,6.00,6,0.100,4632.000,0.200,157.000,0.300,8.000,0.500,1.000,1.000,0,5.000,0
"04/05/08","04:17:24",5055.000,"cc",28331.727,6.00,6,0.100,4854.000,0.200,183.000,0.300,17.000,0.500,1.000,1.000,0,5.000,0
"04/05/08","04:17:30",4714.000,"cc",28365.914,6.00,6,0.100,4542.000,0.200,160.000,0.300,11.000,0.500,1.000,1.000,0,5.000,0
"04/05/08","04:17:36",4217.000,"cc",28304.662,6.00,6,0.100,4084.000,0.200,127.000,0.300,6.000,0.500,0,1.000,0,5.000,0
"04/05/08","04:17:42",4431.000,"cc",28328.379,6.00,6,0.100,4276.000,0.200,147.000,0.300,8.000,0.500,0,1.000,0,5.000,0
"04/05/08","04:17:48",4283.000,"cc",28305.291,6.00,6,0.100,4155.000,0.200,123.000,0.300,5.000,0.500,0,1.000,0,5.000,0
"04/05/08","04:17:54",4514.000,"cc",28274.434,6.00,6,0.100,4370.000,0.200,141.000,0.300,2.000,0.500,1.000,1.000,0,5.000,0
"04/05/08","04:18:00",4381.000,"cc",28274.344,6.00,6,0.100,4233.000,0.200,141.000,0.300,7.000,0.500,0,1.000,0,5.000,0
"04/05/08","04:18:06",4397.000,"cc",28303.699,6.00,6,0.100,4270.000,0.200,119.000,0.300,8.000,0.500,0,1.000,0,5.000,0
"04/05/08","04:18:12",4826.000,"cc",28390.154,6.00,6,0.100,4666.000,0.200,148.000,0.300,12.000,0.500,0,1.000,0,5.000,0